Find Starlink 4331

NORAD ID: 53046 Int'l Des: 2022-077 Owner: SPXS Country: US Constellation: starlink operational
LEOCIRCULARRETROGRADESSO

实时位置

正在加载3D地球...

关于 Starlink 4331

正在加载描述...

即将过境

Passes for default location (London). Set your location on the main map for personalized predictions.

高度历史

Loading altitude history...

两行轨道根数

1 53046U 22077D 26124.78107088 -.00004172 00000-0 -28499-3 0 9991
2 53046 97.5325 306.5202 0002288 80.5323 279.6162 15.05668881209439
Epoch: May 4, 2026 • Age: 7 hours

当前状态

高度 556.3 km
速度 7.58 km/s
星下点 -14.96°S, 127.99°W
发射日期 Jul 11, 2022
运行时间 3.8 years
类型 internet

技术详情

分类 Payload
质量 297.00 kg
干质量 275.00 kg
总质量 297.00 kg
长度 0.20 m
直径 2.80 m
跨度 9.00 m
形状 Box + pan
制造商 SPXS
平台类型 Starlink
阶段状态 In Orbit
所有者/国家 SPXS/US

Most Searched